Theta_e
333 333 333 333 334 334 334 335 334 333 333 333 333 334 334 335 335 335 335 335 336 336 336 334 331 330 328 325 324 325 325 325 325 324 324 324 323 323 322 321 319 318 317 317 316 316 315 315 314 314 314 314 313 313 313 313 313 313 314 314 314 315 314 312 311 310 307 302 301 301 301 301 300 300 300 300 299 299 299 299 299 298 299 299 299
333 333 333 333 334 334 334 335 334 333 333 333 333 334 334 335 335 336 335 335 336 336 336 334 332 330 328 326 325 324 324 324 324 324 323 322 322 321 320 319 318 317 316 316 315 315 314 314 313 313 312 312 312 311 312 312 313 313 313 314 314 313 313 312 309 309 307 304 302 301 301 301 301 301 301 301 301 300 300 299 299 299 299 298 298
333 333 334 334 334 334 334 334 334 334 334 334 333 333 334 334 335 335 335 336 336 336 336 335 333 331 329 327 325 324 323 323 323 323 322 321 321 320 319 317 315 314 313 313 313 313 313 312 311 310 310 309 309 309 310 310 311 312 312 313 313 312 312 311 310 308 306 305 303 302 302 302 302 302 302 302 302 302 301 301 300 300 299 299 298
333 333 333 334 334 334 334 334 334 334 334 334 334 333 333 334 334 335 336 336 336 336 336 335 333 331 330 328 326 324 323 322 322 323 322 321 320 319 318 316 313 310 310 310 310 310 310 309 308 307 306 306 305 305 306 307 308 309 310 310 311 311 311 310 310 307 304 304 304 304 304 304 304 304 304 303 303 303 302 302 302 301 300 299 298
334 333 333 333 334 334 334 335 334 334 334 334 334 333 333 334 334 335 335 336 335 335 336 335 334 332 330 329 327 325 323 322 321 322 321 320 319 318 318 316 311 307 307 308 309 308 307 306 305 304 303 302 302 301 301 302 302 303 303 304 304 305 304 304 303 301 301 303 304 304 304 305 305 305 305 304 304 304 303 303 302 301 300 298 298
334 333 333 333 334 334 334 334 334 334 335 335 334 333 333 334 334 334 335 336 335 334 335 336 335 333 332 330 328 326 324 322 321 321 320 320 319 318 317 314 309 305 305 306 307 306 304 303 303 302 302 301 301 300 299 298 298 298 298 298 298 298 297 297 298 298 300 303 304 304 304 304 305 305 305 305 304 304 304 303 303 302 299 298 298
334 333 334 333 333 334 334 334 334 334 335 335 335 334 333 334 334 335 335 336 335 334 335 336 335 334 333 331 329 326 324 323 321 320 320 319 318 318 316 312 306 303 304 304 304 303 302 302 302 302 302 302 303 302 301 300 300 299 299 298 298 298 298 297 297 298 301 303 303 303 303 303 304 305 305 305 305 305 304 303 302 301 298 297 297
334 334 334 334 334 333 334 334 334 334 335 335 335 335 334 334 335 335 336 336 336 335 335 335 335 335 334 332 329 327 324 323 321 320 319 319 318 317 314 310 305 302 303 303 302 302 301 302 303 303 303 304 304 304 303 303 303 302 302 301 301 300 299 298 298 299 302 303 302 302 303 303 304 304 305 305 305 304 304 302 300 298 298 297 297
334 334 334 334 334 333 334 334 334 334 334 335 335 335 335 335 335 335 336 337 337 336 335 335 335 335 334 332 329 327 324 323 322 320 319 318 317 316 313 308 305 303 302 302 302 302 302 303 304 305 305 305 305 305 305 304 304 303 303 303 302 301 299 298 299 301 302 301 301 301 302 303 304 305 304 305 305 304 303 301 299 297 297 297 297
334 334 334 334 334 333 333 334 334 334 334 335 335 335 335 335 335 335 336 336 337 336 336 335 335 335 334 332 329 326 324 323 322 320 319 318 317 315 311 307 305 304 302 302 302 303 303 304 305 306 306 306 306 307 306 305 304 304 305 305 303 301 298 298 301 302 302 301 300 300 301 303 305 305 305 305 306 304 301 299 298 297 297 297 297
334 334 334 334 334 333 333 334 334 334 334 334 335 335 335 335 336 336 336 335 336 336 336 336 335 334 334 333 330 327 325 323 322 320 319 318 316 314 311 307 306 305 303 302 302 304 305 305 306 306 307 307 308 307 307 306 305 305 306 305 302 298 297 299 301 302 300 300 299 299 300 302 304 305 305 305 304 301 299 298 297 297 297 298 298
334 334 334 334 334 334 334 333 334 334 334 334 335 335 335 335 335 335 335 335 335 336 336 336 335 334 334 332 330 328 326 324 322 320 318 317 316 314 311 309 307 306 304 302 302 304 305 306 306 307 307 307 307 308 307 306 305 305 304 301 299 298 299 300 301 300 299 299 299 299 300 301 303 304 304 303 301 298 297 297 297 297 297 297 297
333 334 334 334 334 334 334 334 334 334 334 334 334 335 335 335 335 335 335 335 335 336 336 336 335 334 333 332 330 328 327 324 322 320 318 317 315 313 311 310 309 308 306 303 301 302 305 307 306 307 308 307 306 306 306 305 305 304 301 299 299 300 300 300 300 299 299 299 299 299 300 301 302 302 301 300 298 297 297 297 297 297 297 297 297
333 333 334 334 334 334 334 334 334 334 334 334 334 335 334 335 335 335 335 335 334 335 335 335 335 334 333 332 330 329 327 325 322 320 318 316 315 313 311 310 311 310 308 305 302 300 303 306 307 307 307 305 304 304 304 304 304 302 300 300 301 301 301 301 300 300 300 299 299 299 299 300 300 299 298 298 297 297 297 297 297 297 297 296 296
333 333 333 333 334 333 333 334 334 334 334 334 334 334 334 334 335 335 335 334 334 335 335 335 335 335 333 332 329 328 327 325 323 320 317 316 314 313 311 311 311 311 309 308 304 300 301 305 306 305 305 304 303 302 302 302 302 300 300 301 301 301 301 301 301 301 300 300 300 300 300 299 299 298 297 297 297 297 297 297 297 297 296 296 295
333 333 333 333 333 333 334 333 334 334 334 334 334 334 334 334 334 334 334 334 334 335 335 335 335 334 334 332 329 327 326 325 322 320 318 316 314 312 311 311 312 311 310 309 306 300 300 303 305 305 304 304 303 301 300 300 299 299 300 301 301 301 301 301 301 300 300 299 300 300 300 299 298 297 297 297 297 296 296 296 296 296 295 295 296
334 333 333 334 333 333 334 333 334 334 334 334 334 334 334 334 334 334 334 334 334 334 334 335 335 334 333 331 329 327 326 325 322 320 318 316 313 312 311 312 312 311 311 310 306 300 299 302 304 305 305 304 303 300 298 298 298 299 300 300 300 300 301 300 300 300 299 299 300 300 299 298 297 297 297 296 296 295 295 295 295 295 295 296 297
333 333 334 334 334 334 334 334 334 334 334 334 334 334 334 334 334 334 334 334 334 334 334 335 334 334 333 332 331 329 328 326 323 320 318 315 313 312 312 312 312 311 310 308 304 300 299 301 304 305 305 303 300 297 296 297 297 299 300 300 300 300 300 300 300 300 299 300 300 300 299 298 297 297 296 296 295 294 295 295 295 294 295 296 296
331 332 333 333 334 334 334 334 334 334 334 334 334 334 333 333 333 333 334 334 334 334 334 334 333 332 331 331 331 329 328 327 323 320 317 315 313 312 312 312 311 309 309 306 301 298 299 301 304 304 301 298 296 295 296 297 297 299 300 300 300 300 300 301 301 300 300 299 299 299 298 297 297 296 296 295 294 294 294 295 294 294 294 294 294
330 330 330 331 332 333 334 334 334 334 334 334 333 333 333 333 333 333 333 333 334 334 333 332 330 330 330 329 328 328 328 326 322 319 317 314 313 312 312 312 311 309 309 307 302 298 297 299 300 299 296 294 295 296 297 297 298 299 299 300 300 299 300 301 301 301 300 299 299 298 297 297 296 296 295 294 293 293 294 294 294 293 293 293 293
330 329 330 330 330 331 332 333 334 334 334 334 334 333 333 334 333 332 333 333 333 333 332 331 329 328 327 325 324 324 324 324 322 320 317 314 313 312 312 313 312 311 309 309 307 302 297 295 295 295 294 295 296 297 298 298 298 299 299 299 300 300 301 302 302 301 300 299 298 297 296 296 295 295 294 293 292 291 292 293 293 293 292 292 292
330 330 329 329 329 329 329 331 332 333 334 334 333 334 334 332 331 331 332 332 332 333 332 329 327 324 322 321 320 320 320 319 318 318 316 313 312 312 313 313 313 312 310 308 308 305 298 294 294 294 294 295 297 298 298 299 299 299 300 300 301 301 302 302 301 300 299 298 297 297 296 295 295 294 293 292 291 290 290 291 291 291 292 291 291
328 328 328 328 329 329 329 329 330 331 332 333 333 333 333 331 328 329 330 331 331 331 329 327 323 319 319 320 319 318 317 316 315 315 314 313 312 313 313 312 312 313 311 309 309 307 300 294 294 294 294 296 298 298 299 299 300 300 300 301 302 302 302 301 301 299 298 297 297 296 295 295 294 293 292 291 290 290 290 291 291 291 291 291 290
325 326 326 327 329 330 330 330 330 330 331 331 331 331 331 330 328 328 330 331 330 329 327 324 320 317 317 318 316 314 314 314 314 314 315 314 313 313 313 312 312 312 312 310 310 309 302 295 294 294 294 296 298 299 300 300 300 300 301 302 303 302 301 300 300 298 297 297 296 296 295 294 293 292 291 291 291 291 291 291 291 290 290 290 289
324 325 325 326 328 329 329 329 329 329 329 329 330 330 329 328 328 328 329 329 329 327 324 321 317 315 315 316 314 311 311 312 312 313 314 314 313 313 313 313 312 312 311 311 311 311 305 297 294 295 295 297 299 299 299 300 300 301 302 303 303 302 300 299 299 298 297 297 296 295 294 293 292 292 291 291 291 291 291 291 290 290 289 289 289
325 325 325 325 327 328 328 328 328 328 328 328 328 329 329 328 327 327 327 327 326 324 321 317 315 313 313 313 311 310 310 310 311 313 313 313 313 313 313 313 312 312 312 311 312 312 306 298 295 295 296 298 300 299 299 300 300 301 302 303 302 301 299 299 298 297 297 296 295 294 293 292 292 292 291 291 291 291 291 290 289 288 288 288 289
326 325 325 325 326 327 327 327 327 327 327 326 326 327 327 327 326 325 325 324 322 320 317 314 313 312 311 310 309 309 309 309 310 311 311 311 311 312 312 313 312 311 312 311 310 311 307 300 296 296 297 298 299 299 300 300 300 301 302 303 301 299 299 298 297 297 296 296 295 294 293 292 292 292 292 291 291 291 290 289 288 288 288 288 287
326 326 326 326 326 326 326 326 326 325 325 325 324 325 325 324 324 324 323 323 321 319 316 315 313 312 311 310 308 308 308 308 309 309 309 310 311 311 312 312 311 311 311 310 310 310 307 300 296 295 297 298 299 299 300 300 301 302 302 301 300 299 298 297 297 296 295 295 294 293 292 292 292 292 291 291 291 290 289 288 288 288 288 287 286
325 325 325 326 326 326 326 326 326 325 324 324 323 322 322 322 322 321 320 320 320 319 318 317 316 314 312 311 310 308 307 308 308 309 309 309 310 312 312 312 311 310 310 309 309 308 303 298 295 295 297 298 298 299 300 300 301 302 302 300 298 298 297 297 296 296 295 294 293 293 292 292 292 292 291 291 290 289 288 288 288 288 286 285 285
321 322 323 324 324 325 326 326 326 325 324 323 322 320 320 319 319 319 318 318 318 317 317 317 316 313 312 311 310 309 309 309 309 308 309 309 311 312 312 311 311 311 310 310 309 306 300 296 296 296 297 298 299 299 300 301 302 301 300 298 298 297 297 296 296 295 294 294 293 292 292 292 292 291 291 290 289 288 288 288 288 287 286 284 283
319 320 321 322 323 324 324 325 326 325 325 324 322 320 319 318 317 317 317 316 316 316 315 315 314 313 311 310 310 309 309 309 308 308 308 310 310 310 310 309 310 310 310 309 308 304 300 297 297 296 297 298 299 299 301 302 301 299 298 297 297 297 296 295 295 294 294 293 292 292 292 292 291 291 290 289 288 288 288 288 287 287 285 284 282
316 317 318 320 321 322 323 324 324 325 325 324 324 322 320 319 317 317 316 315 315 315 315 314 314 313 312 311 310 310 309 308 308 308 309 309 309 309 308 308 308 309 309 309 306 304 301 299 297 296 297 298 299 300 302 302 300 298 298 297 297 296 296 295 295 294 294 293 292 292 292 291 291 290 289 289 288 288 288 287 287 287 285 283 282
313 314 315 316 318 320 321 322 323 323 323 323 323 322 321 320 319 318 317 316 315 315 314 314 314 313 313 312 312 311 310 309 309 309 309 309 308 307 307 307 308 307 307 306 305 303 301 300 298 298 298 298 299 300 302 301 298 298 298 297 297 296 295 295 294 294 293 293 292 292 291 291 290 289 289 289 288 288 288 287 287 286 285 283 282
311 311 312 313 314 316 318 320 321 322 322 322 322 321 321 320 319 318 317 316 316 316 315 315 314 314 313 313 312 312 310 310 310 309 308 307 307 306 306 307 307 306 305 305 305 303 301 300 299 299 298 298 299 301 301 299 298 298 298 297 297 296 295 294 294 293 293 292 292 291 291 290 289 289 289 288 288 288 287 287 286 285 283 282 281
312 312 312 312 313 315 316 317 319 320 321 322 321 321 321 320 319 318 317 316 316 316 316 316 315 314 313 313 312 311 311 310 310 309 307 306 306 306 306 305 304 303 303 303 304 303 302 300 300 298 297 298 299 301 300 298 298 298 298 297 296 295 295 294 293 293 293 292 292 291 290 289 289 289 289 288 288 287 287 287 286 284 282 280 280
313 313 314 314 314 315 315 316 317 318 319 320 320 320 320 319 318 318 317 316 315 315 315 315 315 315 314 312 311 310 309 309 309 307 305 304 305 305 304 302 301 301 301 301 302 303 302 301 299 298 297 298 300 300 299 298 298 298 298 297 296 295 295 294 293 293 292 292 291 290 290 289 289 288 288 288 288 287 287 286 285 283 281 279 279
311 312 313 314 314 315 315 316 316 317 318 319 319 319 319 318 317 316 316 315 315 315 314 314 313 313 312 311 310 309 308 307 308 307 305 305 304 303 302 302 302 302 301 300 301 302 301 299 298 297 298 299 300 299 299 298 298 298 297 297 296 295 295 294 294 293 292 291 291 290 289 289 289 288 288 288 287 287 287 285 283 282 280 279 279
310 310 310 311 312 314 315 315 315 316 316 318 318 318 317 316 316 315 314 314 314 313 312 312 312 311 310 311 310 309 308 307 307 306 305 304 303 302 302 303 304 304 302 300 300 300 298 297 296 297 298 299 299 299 299 298 298 298 297 296 296 295 295 294 293 292 291 291 290 289 289 288 288 288 288 287 287 287 286 284 282 280 280 279 279
309 309 309 309 311 312 313 314 314 314 315 316 317 317 316 315 314 313 313 313 312 312 311 311 311 310 310 310 310 309 307 306 305 304 303 302 301 300 301 301 302 302 302 300 300 299 298 298 298 297 298 299 299 299 299 298 298 297 297 296 295 294 294 293 292 291 291 290 289 289 288 288 288 288 287 287 287 286 285 284 281 280 279 279 279
308 309 309 309 309 310 312 313 313 313 313 315 315 315 315 314 313 312 312 311 311 311 310 311 311 310 309 309 310 309 307 305 305 304 303 302 300 300 300 300 300 301 300 300 299 299 299 300 298 297 298 299 299 299 299 298 297 297 296 295 295 294 293 293 292 291 291 290 289 289 288 288 288 288 287 287 287 286 285 283 281 280 279 279 279
308 309 309 309 309 309 310 312 312 312 312 313 314 314 314 314 313 312 310 310 310 310 310 310 310 310 309 309 310 310 310 309 307 305 304 302 300 299 299 299 299 300 299 299 300 300 299 299 298 298 298 299 299 299 298 298 297 296 296 295 295 294 293 292 291 291 290 289 289 288 288 288 288 288 287 287 286 285 284 282 280 279 279 279 280
308 308 308 308 308 308 308 310 311 312 312 312 312 313 313 313 312 311 310 309 310 309 309 309 309 308 308 308 309 309 309 308 306 304 303 302 300 299 299 299 299 299 299 300 301 300 299 298 298 298 299 299 299 298 298 297 297 296 295 295 294 294 293 292 291 290 290 289 288 288 288 288 288 287 287 287 286 285 283 281 280 279 279 280 281
307 307 307 307 307 307 307 308 309 310 311 311 311 311 312 312 312 311 309 309 309 308 308 308 308 307 307 307 307 307 307 305 304 303 301 300 299 298 298 299 299 299 300 302 302 301 299 299 299 299 299 299 299 298 298 297 297 296 295 295 294 293 292 291 291 290 289 289 288 288 288 288 288 287 287 286 285 284 283 281 280 279 280 280 281
305 306 306 307 307 307 307 307 307 308 310 311 311 310 311 311 311 310 309 308 308 307 307 307 306 305 305 305 304 305 305 304 303 303 301 300 299 298 298 298 299 299 301 301 301 300 299 299 299 299 300 299 299 298 298 297 296 296 295 294 293 293 292 291 290 290 289 289 289 289 288 288 287 287 286 285 285 284 282 281 280 279 280 281 281
303 304 304 305 306 306 306 307 306 307 308 310 310 310 310 310 309 309 308 308 307 307 306 306 305 304 304 304 303 303 303 303 303 303 302 301 300 299 298 297 297 299 301 301 299 298 298 298 299 300 300 299 298 298 297 297 296 295 295 294 293 292 291 290 290 290 289 289 289 288 288 287 287 287 286 285 284 283 282 280 279 280 280 281 280
302 302 302 303 304 304 305 305 306 306 307 309 309 309 309 309 308 308 308 307 306 306 305 305 304 303 303 303 303 303 303 303 303 302 302 301 300 299 297 296 298 300 301 299 297 297 297 298 300 300 299 298 298 297 297 296 295 294 294 293 293 291 290 290 289 289 289 289 288 288 287 287 287 286 285 284 284 283 281 280 279 280 280 280 280
303 303 303 303 303 303 304 305 305 306 307 308 308 308 308 308 307 307 307 306 306 305 304 304 304 303 302 302 302 302 302 302 303 302 301 300 299 298 297 297 299 301 300 297 296 296 297 298 299 300 299 298 297 297 296 295 295 294 293 292 291 290 289 289 289 289 288 288 288 288 287 287 285 284 284 284 283 282 280 279 279 279 279 279 279
305 305 305 305 305 304 305 305 306 306 307 308 307 306 307 307 306 306 306 306 305 304 304 303 303 303 302 302 301 301 301 301 301 301 300 299 299 298 298 299 301 300 297 296 297 298 297 297 298 299 299 298 297 297 296 295 294 293 292 290 289 289 289 289 288 288 288 288 288 287 287 286 284 284 284 284 283 281 280 279 279 279 279 278 278
305 305 305 305 305 306 306 306 307 307 307 306 305 305 305 305 305 305 305 305 304 304 303 303 302 302 302 301 300 300 300 299 299 298 298 298 298 298 299 300 301 299 297 297 298 299 297 297 298 299 299 298 297 297 296 294 293 293 291 289 288 288 289 288 288 288 288 288 288 287 286 285 284 284 284 283 282 280 279 279 278 278 278 278 278
305 305 304 304 305 305 306 306 306 307 306 305 304 304 304 304 304 304 304 304 303 303 303 302 302 302 301 301 300 299 298 298 298 297 297 297 297 298 299 301 301 299 297 298 299 299 297 297 298 298 298 298 297 296 295 294 293 292 290 288 288 288 288 288 288 288 288 288 287 287 285 284 284 285 284 283 281 279 279 278 278 278 278 278 277
304 304 303 303 304 304 304 304 304 305 305 304 303 303 303 303 303 303 303 303 303 303 303 302 302 301 301 300 300 299 298 298 298 297 296 296 297 297 299 299 299 297 296 297 298 297 297 298 298 298 297 297 297 295 294 293 292 291 289 288 288 288 288 288 288 288 288 287 287 286 285 284 285 285 284 282 280 279 279 278 278 278 278 278 277
Wind_Speed
25 24 23 23 23 22 19 17 17 18 18 18 18 18 17 15 13 12 11 11 10 9 10 9 8 6 4 4 4 5 6 6 7 7 7 8 8 8 8 7 8 10 10 10 9 9 9 11 12 11 9 9 10 11 11 10 11 12 12 13 16 16 18 23 18 9 10 14 16 16 16 16 19 20 20 21 21 20 20 19 18 18 19 19 20
26 25 24 24 24 23 21 18 18 18 19 20 20 19 18 16 15 14 13 12 11 11 11 11 10 8 6 5 5 6 6 6 7 7 6 7 8 7 6 5 6 7 8 8 8 8 8 9 10 9 8 8 10 10 11 11 11 13 15 15 17 17 16 21 20 12 10 13 16 17 16 17 19 20 20 21 22 21 21 21 20 20 20 20 21
27 26 25 24 24 24 22 21 20 19 20 21 22 22 20 18 16 16 15 14 13 12 13 12 12 11 9 8 7 7 7 7 7 7 6 5 6 6 5 4 4 5 6 7 8 7 6 7 8 8 7 8 11 11 11 12 11 13 15 14 15 16 14 16 17 15 12 12 14 17 17 18 19 19 18 19 20 21 21 22 21 21 20 20 21
28 27 27 26 25 25 24 23 22 22 21 21 23 23 21 19 18 18 17 17 15 15 14 15 14 14 12 11 10 9 9 9 8 8 7 6 5 5 5 4 3 4 5 7 7 6 5 7 8 7 7 9 12 12 11 12 12 13 14 14 14 14 13 12 13 14 14 14 13 14 16 16 16 16 16 16 18 19 20 20 20 21 21 20 21
28 28 28 27 26 26 26 25 24 24 23 22 23 24 23 21 20 20 20 19 18 17 17 17 17 17 16 15 13 12 11 10 10 10 9 8 7 6 5 4 4 5 6 6 6 5 5 6 8 7 7 10 13 12 12 13 13 14 15 15 15 15 14 13 13 14 17 17 14 12 13 13 13 13 13 14 15 16 17 18 18 19 19 19 19
29 29 29 29 28 28 28 27 27 26 25 23 23 25 25 23 22 22 22 21 20 20 20 20 20 20 19 18 17 15 14 13 12 12 12 11 10 8 7 6 6 6 7 7 6 6 5 7 9 8 8 10 13 13 13 14 14 15 16 17 17 16 16 16 15 16 17 17 14 12 12 11 11 11 11 11 13 14 14 15 16 18 18 18 17
29 29 30 30 30 30 30 30 29 28 27 25 24 25 26 26 24 24 24 24 23 23 23 22 22 22 22 21 20 18 16 15 15 15 14 13 13 11 9 8 8 8 8 8 7 7 7 8 9 9 9 10 12 13 13 14 15 16 16 16 15 15 15 15 14 15 16 16 14 12 11 10 9 9 9 9 10 12 13 14 15 17 17 16 15
29 30 30 30 31 32 31 31 31 30 29 27 26 26 28 28 27 26 26 27 26 26 26 25 25 25 24 24 23 21 20 19 18 17 17 16 15 13 12 11 11 11 11 10 10 9 9 10 10 10 11 11 11 11 11 12 14 15 14 13 13 13 13 12 12 13 15 15 13 12 11 10 9 7 7 8 9 11 12 13 14 16 16 16 14
29 29 30 31 32 33 32 32 32 31 30 29 28 28 28 29 29 29 29 29 29 28 28 27 26 27 27 26 26 25 23 22 21 20 19 18 17 16 14 14 13 13 13 13 12 11 11 11 12 12 12 12 12 11 10 9 11 13 13 11 10 11 11 11 11 13 15 14 13 12 12 11 10 8 7 8 9 9 10 12 13 14 15 15 14
29 30 30 32 32 33 33 33 32 32 32 32 32 31 30 30 30 30 30 30 30 30 29 28 28 28 29 29 29 28 27 25 23 22 21 20 20 19 17 16 15 15 15 16 15 14 14 14 14 14 14 13 12 11 11 10 9 11 11 9 8 9 9 11 12 13 14 14 12 12 12 11 10 9 8 8 8 8 9 11 12 12 13 13 12
30 30 31 32 33 33 33 34 33 34 34 34 34 33 32 32 32 31 31 31 31 31 30 30 30 30 30 31 31 31 30 28 26 24 23 22 21 21 20 19 18 17 17 17 18 18 17 16 16 16 15 14 13 12 12 11 10 10 9 8 7 7 8 12 14 14 14 13 11 11 11 10 9 8 8 8 7 8 9 9 10 12 13 12 10
31 32 33 33 33 33 34 34 34 34 35 34 35 35 34 34 34 33 33 33 33 33 32 32 32 32 32 33 34 33 32 30 28 27 25 25 24 23 22 22 20 19 19 18 19 20 19 18 17 16 16 14 14 13 13 12 10 9 8 8 10 10 10 12 14 13 13 12 11 10 10 9 9 8 8 8 7 8 9 9 9 12 13 12 11
32 33 34 34 34 35 35 35 35 35 35 35 35 35 34 35 35 35 35 34 34 34 34 34 34 34 34 35 36 35 34 32 30 29 28 27 26 25 24 23 22 21 20 20 20 20 20 19 18 18 17 15 14 14 14 13 11 10 10 11 13 13 12 12 12 11 11 10 10 10 9 9 9 9 8 7 7 7 9 10 10 11 13 13 13
32 33 34 34 34 35 34 34 35 36 36 35 34 34 35 36 37 37 36 34 34 34 35 35 35 35 36 37 38 37 37 35 33 31 30 29 28 27 26 25 23 22 22 20 20 20 21 21 20 20 19 17 15 14 14 14 13 12 12 13 14 13 12 10 9 9 8 8 7 7 8 8 9 9 8 7 6 7 9 11 10 10 12 12 11
31 32 33 33 33 33 33 33 35 36 36 35 34 35 36 37 37 37 36 35 35 35 35 36 37 37 38 38 38 39 39 38 36 34 32 32 31 30 29 27 26 24 23 21 19 20 21 21 21 21 20 18 16 14 14 14 14 14 14 14 13 12 10 9 7 7 6 6 5 6 8 9 8 7 6 5 6 7 9 10 9 9 11 12 10
29 31 32 33 33 33 33 33 35 36 35 34 34 35 37 37 37 36 35 35 36 36 36 38 39 39 39 39 39 40 40 39 38 36 34 34 34 33 31 30 28 27 25 22 21 20 22 22 21 21 20 18 16 14 14 14 15 15 15 15 14 12 10 9 7 7 7 6 6 7 8 8 6 5 5 5 7 8 9 9 9 9 10 10 8
28 29 31 32 33 32 33 33 34 35 35 33 34 36 37 37 36 35 34 34 36 37 38 40 41 41 40 40 40 40 41 41 41 39 38 37 37 36 34 32 30 28 27 24 23 22 22 22 22 22 21 19 17 15 14 15 16 17 17 16 15 13 11 8 7 7 7 7 8 9 9 6 4 4 5 7 8 10 10 9 8 8 8 7 5
23 26 29 31 31 31 32 33 34 35 34 34 36 38 38 36 34 33 33 34 35 38 40 41 41 42 41 41 42 42 43 44 43 41 40 41 41 39 37 34 32 30 28 26 24 23 22 22 23 23 22 20 18 17 16 16 18 19 18 18 16 13 10 8 6 6 7 8 9 9 7 5 3 3 5 8 9 10 10 7 6 6 6 5 4
19 21 23 25 28 30 31 32 34 34 34 35 36 34 30 27 25 25 27 30 34 37 39 39 39 40 40 42 43 43 44 44 44 44 44 44 44 41 38 36 34 32 31 29 26 24 24 24 24 23 22 20 19 19 18 18 19 19 19 19 17 14 10 7 6 7 8 9 9 8 6 4 2 3 5 8 9 9 7 6 5 6 6 5 5
13 16 19 20 22 26 29 30 32 33 33 34 32 28 26 27 25 24 26 29 33 35 37 37 36 37 39 41 42 43 44 44 44 45 46 46 46 43 40 38 36 35 34 32 30 27 26 26 25 23 22 22 21 20 19 19 19 19 19 19 17 14 12 9 7 8 8 8 8 8 6 4 1 3 6 8 8 7 6 5 5 6 6 7 7
13 12 14 16 18 20 23 27 31 33 34 33 30 29 33 35 34 33 32 33 34 36 36 36 35 36 37 38 39 41 42 43 45 47 49 50 48 45 42 40 39 38 37 35 33 31 29 28 26 24 23 23 23 22 21 20 19 19 19 17 15 13 12 11 10 10 9 9 9 8 6 3 1 3 5 7 6 5 5 5 6 6 7 8 8
15 14 13 12 12 15 18 21 25 29 31 32 32 33 34 33 30 29 30 31 33 35 35 33 32 32 33 34 36 38 39 40 42 45 49 49 47 44 43 40 38 39 38 36 34 33 31 30 28 26 25 24 24 24 23 21 20 19 17 16 14 12 12 11 11 12 11 10 10 8 6 2 0 2 4 5 5 5 5 5 6 6 7 8 9
16 15 15 14 12 11 12 14 17 21 24 26 29 31 31 28 26 26 28 29 30 30 30 30 29 28 30 34 37 39 39 39 39 42 46 47 45 43 41 38 36 38 38 37 36 33 31 30 29 27 26 26 26 26 24 23 21 19 17 15 13 12 12 12 13 13 12 11 10 7 5 3 0 1 3 4 5 5 5 6 6 7 8 9 8
19 18 17 17 15 12 10 9 9 12 15 19 21 24 25 25 25 25 26 26 27 28 29 30 29 28 31 35 35 35 38 39 39 42 47 48 46 43 40 36 35 37 36 35 35 33 30 30 29 27 27 27 27 27 26 24 22 19 17 16 14 14 14 14 14 14 13 12 9 7 5 3 1 1 2 3 4 4 5 6 7 8 10 10 8
20 19 19 19 17 14 11 9 7 6 8 11 13 17 20 21 21 23 24 24 27 29 30 29 29 29 32 34 32 32 35 36 37 41 46 47 45 43 41 38 36 35 34 33 33 32 30 29 27 26 28 29 28 27 26 24 21 19 17 17 17 16 16 15 15 15 13 11 9 7 6 4 2 2 2 3 3 3 5 7 7 8 9 10 9
20 20 19 19 19 17 14 12 10 8 7 6 8 12 16 17 18 21 23 25 27 28 26 26 26 26 27 28 27 28 30 31 33 38 41 43 42 41 40 37 33 33 33 33 33 32 30 29 28 28 30 31 30 28 26 23 21 19 18 18 18 17 17 16 15 14 13 11 10 8 6 5 3 2 1 1 2 4 6 7 7 8 10 11 11
20 20 19 18 18 17 16 15 13 10 8 8 9 11 14 16 17 20 22 24 24 22 20 21 22 23 23 23 23 25 27 28 30 34 36 38 39 39 38 34 31 32 34 33 32 32 32 31 30 30 31 31 30 28 25 22 20 19 20 20 19 18 16 14 12 12 11 10 9 8 7 5 4 3 1 1 2 4 4 4 6 9 12 13 12
18 18 18 17 17 17 16 15 14 12 10 10 11 12 13 14 15 18 20 21 21 21 21 23 26 27 25 23 22 23 23 25 29 32 34 36 37 38 35 33 32 33 34 33 33 33 33 33 32 32 32 31 29 27 24 22 21 21 21 21 19 18 16 13 12 11 10 10 9 8 8 6 5 3 3 3 3 3 2 3 7 12 14 13 12
17 17 16 16 16 16 16 15 14 13 13 12 11 11 11 11 13 16 17 18 20 22 23 26 29 30 29 28 27 26 25 27 32 34 35 35 36 35 33 34 35 34 34 34 33 32 33 33 33 32 32 31 29 27 24 22 22 22 22 21 20 19 18 15 13 12 11 10 9 9 8 7 6 5 4 4 4 2 1 4 9 13 14 13 12
20 19 18 18 17 15 15 15 15 14 14 13 12 10 10 9 10 12 14 15 17 20 22 24 25 26 26 28 28 27 28 31 34 34 34 34 34 33 34 36 35 32 32 34 33 31 32 33 32 32 33 32 30 28 25 24 24 25 24 23 21 20 18 15 13 12 11 10 9 9 8 7 6 6 5 5 4 3 2 6 11 13 13 12 13
24 23 22 21 19 17 16 15 14 14 14 13 12 11 10 9 8 9 10 12 13 15 18 21 21 21 22 23 24 24 25 27 30 33 35 36 36 36 37 36 34 31 32 32 31 30 32 32 32 33 33 32 30 29 27 26 28 27 26 24 22 20 18 16 14 13 11 10 10 10 8 8 7 6 6 5 4 2 3 8 12 13 13 12 12
26 25 25 24 22 20 18 16 15 15 14 13 13 12 12 11 10 9 8 9 10 11 13 15 18 18 19 21 23 24 24 24 27 31 35 37 38 39 38 36 33 31 31 31 30 30 32 32 32 32 32 31 30 29 28 29 30 29 27 25 23 20 18 16 14 12 11 11 11 10 9 8 7 7 6 5 3 2 5 10 13 14 14 14 13
27 27 27 26 25 23 21 19 17 16 15 14 13 13 13 13 13 12 10 9 9 9 10 12 14 16 17 19 22 24 25 25 24 27 32 36 38 38 37 35 32 31 31 32 30 30 31 31 31 31 32 31 30 29 30 31 31 29 26 24 22 20 18 16 14 12 11 11 11 10 9 8 7 7 6 5 3 4 7 11 13 14 14 13 14
28 27 27 27 26 25 23 21 19 18 17 16 15 15 14 14 13 13 12 10 9 10 12 12 13 14 16 17 18 21 25 26 24 25 30 35 36 35 34 31 29 29 31 32 31 30 30 30 30 30 31 30 29 30 31 31 30 28 25 22 20 19 18 17 15 13 12 12 12 11 9 8 7 7 6 4 3 5 9 12 13 13 13 13 13
28 28 28 28 27 27 26 24 21 19 18 17 17 17 17 15 14 14 13 12 11 11 12 13 13 14 15 16 17 20 24 25 23 23 28 33 35 34 31 27 26 26 27 29 30 30 30 30 30 30 30 28 28 30 31 31 29 26 24 22 20 20 19 18 16 14 13 13 13 11 9 8 8 7 6 5 5 7 10 13 13 13 13 12 12
28 29 29 29 29 28 27 26 23 21 19 18 17 17 17 17 16 15 15 14 13 13 12 12 13 14 14 16 18 20 23 23 21 22 27 32 33 31 28 26 26 26 26 26 27 28 30 31 31 29 27 27 28 30 32 31 28 25 23 22 21 21 20 18 16 15 15 14 12 11 9 9 9 8 6 5 6 8 11 13 13 13 12 12 12
27 28 28 29 30 29 28 27 25 22 20 18 17 16 16 17 16 16 15 15 15 14 13 13 13 13 14 15 16 18 20 19 18 20 26 31 32 30 29 28 29 30 29 28 28 28 29 29 27 24 25 27 29 31 31 29 26 25 24 22 21 20 18 17 15 15 15 14 13 11 10 10 9 8 7 6 7 10 12 13 12 12 12 12 12
26 27 28 29 29 29 28 27 26 23 20 18 17 16 16 16 16 16 16 16 16 15 15 15 14 14 14 14 15 17 18 19 19 22 27 32 34 34 33 32 34 35 34 31 30 29 26 23 22 22 26 29 31 31 30 27 26 25 24 22 20 18 16 16 16 16 15 14 13 12 11 11 10 8 7 7 9 11 13 12 12 12 13 13 13
29 29 29 29 29 29 29 28 26 23 20 18 17 16 16 16 16 16 16 16 17 17 16 16 17 16 15 15 17 19 21 23 25 27 29 32 34 35 33 32 33 35 33 31 30 28 25 22 22 25 28 31 31 30 28 26 25 25 24 22 20 18 17 17 18 18 17 15 13 13 12 11 9 8 7 8 10 12 12 12 11 12 13 13 14
28 29 29 30 29 29 28 27 26 24 21 18 16 16 16 16 16 16 15 16 17 17 18 18 19 18 16 17 20 24 26 27 27 28 30 33 35 34 33 32 33 33 33 31 29 29 28 25 25 28 30 31 31 29 27 26 25 24 23 22 20 20 19 19 19 18 17 15 14 14 13 11 9 8 7 9 10 11 11 11 11 11 12 13 13
25 26 27 28 29 29 28 27 26 25 23 20 18 16 16 17 16 15 15 16 17 18 18 20 21 19 17 19 22 25 28 29 30 31 33 35 36 34 33 32 33 34 34 33 31 31 30 27 27 29 31 31 29 28 27 26 25 24 23 21 20 20 20 20 19 18 16 15 15 14 12 10 9 8 8 9 10 11 11 11 11 12 12 13 12
23 23 24 25 26 27 28 27 26 26 24 22 20 18 17 17 16 15 15 16 18 18 19 21 21 20 19 19 21 25 28 29 28 30 32 33 34 34 33 33 34 35 36 36 34 33 30 28 28 30 31 30 29 28 27 26 25 23 22 21 21 21 21 21 20 18 16 15 15 14 11 10 9 8 9 10 10 11 11 11 11 12 12 12 12
23 23 23 24 25 26 27 27 26 26 24 23 22 21 19 18 16 16 16 17 18 18 19 20 20 19 19 19 20 24 27 25 24 26 29 29 30 31 32 32 34 35 35 34 32 30 29 29 29 30 29 28 28 27 26 24 23 21 21 22 23 22 21 21 20 19 17 15 14 13 11 9 8 8 9 10 10 11 11 11 11 12 12 12 12
24 24 24 24 25 26 27 27 27 26 25 23 22 21 20 19 17 16 16 16 17 18 18 19 19 17 17 18 19 24 27 26 24 26 27 27 29 31 31 32 34 35 34 31 29 28 29 29 28 29 28 28 28 27 24 22 20 20 21 23 23 22 22 22 20 19 17 15 14 12 10 9 8 8 9 10 10 10 10 10 11 11 11 11 12
24 24 24 24 25 26 27 27 27 26 25 24 23 22 21 19 18 17 16 16 16 17 17 18 17 16 17 18 19 23 27 27 26 26 28 29 31 33 32 32 33 34 33 30 28 29 29 28 28 29 31 30 28 26 23 20 18 18 19 20 21 21 21 20 18 16 15 14 12 11 9 8 7 8 9 9 9 10 10 10 10 11 11 11 12
24 23 23 23 23 24 26 26 26 26 24 23 22 22 21 20 19 17 17 16 16 16 16 17 16 17 18 19 20 22 25 27 27 27 28 29 31 32 32 32 32 33 33 30 28 28 28 27 28 30 31 30 28 25 22 20 18 18 18 17 17 17 17 17 16 15 14 12 11 9 8 7 7 8 8 8 9 9 9 9 10 10 11 11 13
23 23 22 22 22 23 24 25 25 24 23 22 21 21 21 20 19 18 17 16 16 15 15 15 16 17 18 19 20 22 24 26 27 28 28 28 28 30 32 33 33 34 33 30 27 27 27 27 29 31 32 30 28 25 23 21 19 19 18 17 16 16 17 17 16 14 13 11 10 9 7 6 6 7 7 7 7 7 8 9 9 10 11 12 13
22 22 22 22 22 23 23 24 24 23 23 22 21 21 20 19 18 18 17 16 15 15 14 14 15 17 18 19 20 22 23 24 25 26 27 28 28 30 32 34 35 35 34 31 28 27 27 28 31 33 33 30 27 25 23 22 21 20 19 19 19 18 18 17 16 14 12 11 10 8 6 6 6 6 6 6 6 7 8 8 9 10 12 13 14
22 22 22 22 22 22 23 23 23 22 21 21 20 20 19 18 18 17 16 15 14 14 14 14 15 16 18 18 20 21 21 22 23 25 26 27 28 29 32 35 36 36 35 32 29 28 28 29 31 34 33 29 26 25 23 22 21 21 20 20 19 18 17 16 15 13 12 11 9 6 5 5 5 5 4 5 5 6 7 8 9 11 13 14 15
21 21 21 21 21 21 21 22 22 22 21 20 18 18 17 17 17 17 15 14 14 14 15 15 15 16 17 18 19 20 20 21 23 25 25 26 28 30 32 36 38 38 36 33 30 28 28 29 32 34 32 28 25 23 22 21 21 21 21 20 19 18 17 16 15 13 12 10 7 6 5 5 4 3 4 4 5 6 7 8 10 12 13 13 15
18 19 19 19 20 20 21 22 22 21 21 19 18 17 16 16 16 15 14 14 15 15 16 16 16 16 17 18 19 21 21 22 23 25 26 27 29 31 33 35 36 36 35 32 30 28 28 31 34 34 31 27 25 23 21 21 21 21 20 19 19 18 17 16 14 12 10 9 7 5 4 4 3 3 3 4 5 6 8 9 10 11 12 13 14
Wind_Direction
211 210 209 211 215 218 222 226 223 219 218 219 217 209 206 206 205 208 213 219 225 223 218 217 212 206 199 193 190 188 183 172 164 158 146 139 136 132 132 127 116 115 115 113 112 107 106 106 103 99 94 90 88 87 86 86 90 98 105 114 118 126 126 117 112 111 92 85 85 84 82 80 76 73 73 72 68 66 65 64 61 59 57 56 53
214 214 213 214 216 219 222 224 223 222 223 225 223 217 214 212 210 213 216 221 229 229 223 220 217 215 213 207 202 200 196 186 178 175 163 150 144 138 136 128 118 121 122 119 117 115 111 107 104 100 94 91 92 89 90 92 96 99 103 111 116 119 124 120 115 112 98 86 83 83 80 78 76 73 70 70 67 63 61 59 56 55 54 53 51
217 217 217 218 219 219 222 223 222 224 227 228 226 222 219 217 217 218 219 223 229 230 227 224 221 220 221 218 215 211 206 201 195 192 187 171 156 149 144 133 123 129 134 130 126 125 121 111 105 104 101 97 96 95 96 97 98 101 101 105 112 115 121 124 119 114 105 91 84 83 80 77 76 73 68 68 65 60 58 56 52 50 48 46 44
218 218 219 221 221 221 223 224 224 226 228 229 227 224 222 220 220 222 222 225 227 228 228 227 223 222 222 222 221 218 215 212 207 203 201 194 180 167 161 151 142 145 144 138 135 131 123 114 109 109 107 102 101 100 101 102 101 103 103 103 106 110 113 116 118 118 113 102 91 86 84 80 76 73 68 66 63 60 59 56 50 45 41 38 37
219 219 220 223 223 223 225 226 227 228 229 230 228 225 223 222 223 224 224 226 226 225 225 226 225 224 225 226 224 222 220 218 215 211 206 202 197 188 179 169 159 156 150 142 137 132 125 118 114 117 116 108 107 105 103 104 104 104 105 105 105 106 105 104 107 112 111 107 101 95 90 85 78 72 66 63 61 60 58 54 49 43 37 33 33
219 220 221 222 224 226 227 227 229 230 231 232 230 226 225 224 225 226 226 226 225 224 225 226 226 227 228 229 228 224 221 220 219 216 209 205 200 193 187 176 165 160 154 149 144 137 134 129 123 125 128 120 116 113 109 108 107 106 106 106 105 104 101 100 102 105 106 105 102 95 89 85 81 74 65 59 57 56 54 51 46 39 33 29 29
219 221 221 223 225 227 228 228 229 231 232 234 233 229 227 227 228 229 228 228 227 226 226 227 227 229 229 229 229 227 224 221 218 215 211 206 201 194 188 177 167 164 160 155 154 149 142 138 135 134 134 130 126 123 119 115 110 107 107 107 107 104 99 98 100 103 105 101 94 87 82 79 78 77 71 61 55 53 49 46 43 37 30 26 24
219 221 221 223 225 227 230 231 231 232 233 235 236 234 231 230 232 232 230 229 231 231 230 229 228 228 228 229 228 226 224 221 218 214 209 204 200 195 189 183 173 166 164 160 157 156 150 144 142 141 137 133 132 131 129 125 119 113 110 109 108 103 100 101 102 103 104 98 91 86 80 72 68 72 72 62 56 52 45 42 40 33 27 24 21
220 221 221 223 225 228 231 232 233 233 234 235 237 236 235 235 236 235 232 232 234 235 235 233 231 228 227 226 226 225 224 223 220 216 211 204 199 196 191 186 180 171 167 163 161 160 157 153 149 146 142 138 137 134 130 128 126 121 118 116 111 107 106 110 111 110 106 99 91 85 77 66 58 59 61 59 58 53 43 36 32 27 22 20 17
221 221 222 225 227 230 231 232 233 234 234 235 236 237 238 238 239 238 236 235 237 237 236 234 232 230 227 225 224 224 224 224 222 219 215 209 201 196 191 186 183 180 174 168 167 165 163 160 156 153 153 151 149 144 137 133 130 125 123 119 110 110 118 121 118 114 109 101 91 83 75 63 55 58 65 66 65 57 41 30 25 21 15 13 15
222 223 225 227 228 230 231 232 233 234 234 235 235 236 238 239 241 241 239 238 238 238 236 235 233 231 229 226 225 225 225 224 221 218 216 211 204 198 192 187 184 185 183 177 173 172 169 166 164 163 164 162 159 154 148 146 142 134 127 117 105 106 122 127 124 119 112 105 95 85 77 69 65 71 78 78 71 54 36 24 19 15 10 7 8
221 224 227 229 229 229 231 232 233 234 234 234 235 236 237 238 240 241 240 238 237 236 235 235 234 232 229 227 226 226 226 225 221 218 214 210 207 202 196 191 187 186 186 183 179 177 175 171 169 169 170 168 164 159 156 154 151 140 127 116 113 113 117 123 124 121 116 109 102 94 85 81 80 82 87 84 68 45 29 21 14 11 9 6 359
222 225 228 229 229 230 230 231 232 233 234 234 235 235 235 236 237 238 239 239 237 235 234 234 234 232 229 227 226 227 227 225 221 217 214 210 208 205 198 194 191 189 187 185 183 182 179 174 171 171 172 171 168 164 162 159 152 142 130 122 121 121 122 124 122 117 112 107 105 100 93 93 95 92 88 78 56 36 24 16 9 5 5 3 357
222 226 228 229 230 230 230 230 231 234 235 234 234 233 233 234 235 236 237 236 234 233 232 233 233 232 230 228 227 227 226 225 221 216 213 210 208 206 201 196 194 191 188 186 186 187 184 178 175 174 173 172 171 170 168 163 154 145 136 128 126 128 131 131 125 116 105 95 96 102 103 105 103 94 84 69 49 28 14 6 1 358 358 357 351
224 227 229 230 231 231 230 231 232 234 235 234 233 232 232 232 233 234 233 233 233 233 232 233 233 233 231 228 226 226 226 225 221 216 212 211 209 205 201 197 194 191 188 187 189 190 188 185 183 180 176 173 174 176 173 166 157 149 140 135 132 134 136 133 126 115 100 89 95 112 117 112 102 92 80 62 40 20 6 356 350 347 347 347 345
228 229 231 232 232 232 231 232 234 235 235 234 233 233 233 232 232 231 230 231 232 232 232 233 233 232 231 227 225 225 225 224 220 216 213 211 207 203 199 196 193 191 188 187 189 191 191 190 189 186 181 177 178 180 177 170 164 156 147 141 139 138 136 132 125 113 102 100 109 123 127 119 103 90 66 39 23 12 4 352 343 341 342 343 341
232 233 234 235 234 234 233 233 235 236 235 233 233 234 235 234 233 230 228 228 228 229 230 232 233 232 229 225 224 224 224 224 220 215 213 210 204 199 197 195 193 191 189 187 188 190 192 193 193 190 187 184 182 181 179 176 170 163 154 148 146 143 139 136 130 116 106 110 123 134 138 129 106 79 42 23 14 8 1 354 346 344 345 347 338
246 245 244 243 241 239 237 236 236 237 236 234 235 236 236 236 235 231 228 227 228 230 232 232 233 231 227 226 225 224 225 225 220 214 212 210 204 199 197 194 191 190 189 188 188 190 192 194 196 194 191 188 185 181 180 180 175 168 161 156 154 151 147 145 144 132 122 125 138 149 151 136 105 60 22 12 8 5 1 357 350 350 356 359 339
259 258 257 256 253 249 244 240 239 239 239 238 238 238 238 238 240 239 236 233 233 234 234 232 231 230 228 228 227 225 225 225 220 213 211 209 204 199 194 190 188 188 189 188 188 190 192 193 196 197 193 188 185 181 180 183 180 173 168 164 161 158 156 156 156 148 140 141 152 162 159 143 104 32 17 12 8 3 359 356 351 356 6 9 357
295 275 269 268 264 258 253 247 244 243 243 244 243 240 237 238 239 239 239 240 240 239 236 232 231 231 230 229 227 225 225 224 220 213 209 208 204 197 192 189 188 188 189 189 187 188 191 192 192 194 193 188 184 180 180 185 183 176 173 172 169 167 171 176 173 166 161 162 168 172 167 155 107 28 17 11 4 354 346 344 344 351 1 6 6
347 320 293 281 272 266 261 254 250 248 247 246 244 241 240 239 237 233 231 232 234 235 234 232 230 231 231 227 225 225 224 224 221 214 210 208 203 196 192 193 192 189 189 190 189 187 188 190 190 190 191 189 183 178 178 182 181 177 177 179 178 178 185 192 188 183 181 180 177 174 169 160 95 19 6 3 3 352 337 333 337 344 355 2 3
360 358 345 325 302 287 277 268 260 254 250 246 242 242 243 241 240 239 236 231 229 229 230 229 227 227 227 225 224 223 222 223 221 215 208 203 199 196 196 197 196 192 189 188 189 188 187 188 189 188 189 187 181 176 174 176 177 178 180 182 183 187 193 194 189 186 185 182 179 177 175 174 1 2 5 14 23 17 2 354 350 349 350 354 355
359 359 1 359 349 332 312 293 278 267 258 250 243 243 244 241 240 244 243 235 227 224 225 224 221 219 222 225 225 221 218 218 218 213 206 202 200 201 201 200 198 196 193 190 190 189 188 189 188 186 186 185 180 176 175 177 179 183 185 187 190 194 193 189 186 185 184 183 184 187 189 193 244 18 35 40 43 38 26 14 4 352 340 338 342
2 358 358 360 0 0 353 332 306 284 269 258 249 248 250 246 240 240 239 231 223 220 220 219 215 212 216 223 222 216 213 214 214 211 207 204 203 203 204 202 201 200 197 194 193 192 191 190 188 186 186 185 182 179 180 182 185 188 190 191 194 193 189 186 185 184 185 189 193 195 196 192 177 99 75 57 47 38 24 9 354 341 332 331 335
358 357 356 354 354 357 0 0 356 336 298 277 268 267 264 254 242 238 236 229 222 220 218 216 212 210 213 218 217 211 209 210 208 206 205 204 202 203 204 203 201 200 197 197 197 197 195 191 189 188 187 185 182 183 185 187 190 193 194 193 193 191 188 185 185 185 188 193 196 197 195 189 172 138 98 58 36 11 1 355 345 336 335 337 339
356 356 354 353 353 353 353 352 352 350 339 325 310 293 279 264 247 238 233 228 224 222 219 216 214 213 215 217 214 207 203 201 199 199 201 201 201 201 201 200 200 202 202 202 202 201 196 191 190 190 189 185 184 186 188 190 194 198 198 194 191 189 187 187 187 188 193 196 198 198 195 188 178 162 122 43 356 342 348 352 350 350 352 351 347
355 356 355 354 354 353 352 350 347 348 348 343 330 308 290 274 257 241 231 226 224 222 219 217 216 216 217 216 211 205 200 195 193 194 195 195 196 196 196 197 199 202 203 204 204 201 196 192 192 191 189 187 188 190 191 193 198 201 198 193 190 187 187 190 191 194 198 199 197 195 192 190 189 180 176 265 303 327 341 352 356 356 356 353 348
353 352 352 353 351 349 347 344 340 338 336 330 323 313 301 287 269 253 242 234 229 224 219 218 219 217 213 208 204 202 199 196 195 193 191 191 192 191 192 196 199 200 202 204 203 200 195 193 191 190 189 188 190 192 194 198 203 202 196 189 185 183 184 187 189 193 197 196 192 194 195 195 199 203 216 251 281 305 317 337 350 351 350 348 341
354 350 347 347 346 342 340 336 331 327 326 323 318 313 306 294 274 260 251 243 237 233 228 227 227 222 214 208 204 200 199 202 201 196 192 191 189 188 192 199 201 201 202 203 200 195 191 189 189 188 187 188 189 191 195 200 201 198 191 184 180 181 185 188 190 193 196 194 193 197 199 200 205 212 228 253 265 256 274 337 347 346 346 344 336
357 354 350 346 343 338 334 332 328 323 322 322 318 312 307 298 281 264 254 246 242 240 238 238 236 229 221 216 211 207 209 210 205 198 194 190 188 192 201 205 203 200 201 202 198 193 188 186 186 186 187 188 190 192 196 197 194 189 185 181 181 184 187 190 194 194 194 195 197 201 202 204 211 222 236 246 240 230 296 342 347 345 343 341 335
0 357 353 348 344 339 332 327 324 322 320 319 315 308 300 293 285 273 261 251 245 244 243 243 242 237 228 222 218 217 219 217 210 203 198 194 193 200 205 204 200 199 202 201 196 191 187 184 185 187 188 190 193 195 196 194 189 184 182 181 185 188 189 190 194 194 194 196 199 202 205 209 218 231 237 232 222 238 322 342 347 344 342 339 333
2 358 356 352 348 343 335 326 319 314 312 312 308 303 297 290 286 282 271 258 252 252 250 246 244 241 235 229 225 224 224 221 216 212 207 202 202 204 204 202 201 204 206 203 196 191 188 187 186 187 188 192 196 197 196 192 187 184 182 183 185 189 191 194 196 196 197 201 202 204 208 214 224 232 228 218 224 293 331 339 341 340 339 338 335
1 358 357 354 351 346 340 332 322 311 305 301 297 292 288 283 281 283 281 271 261 256 256 254 250 246 242 237 232 229 228 225 221 217 212 207 205 204 203 204 208 210 207 201 195 191 190 189 189 189 191 194 197 197 194 190 187 186 187 188 189 191 193 195 196 196 199 205 206 208 211 216 223 226 218 217 249 309 327 333 336 335 334 333 332
358 355 353 353 350 347 343 336 328 318 309 300 292 286 282 278 275 273 271 267 258 250 247 248 248 248 247 244 236 230 227 224 221 218 213 207 203 202 204 207 211 212 206 199 195 192 189 189 190 193 194 196 198 196 193 190 188 189 191 192 193 192 192 194 196 198 201 205 207 209 214 218 220 219 216 225 269 306 321 328 329 329 329 329 327
357 353 351 349 348 345 342 337 330 322 313 304 296 290 286 281 274 267 262 260 258 255 252 247 242 241 242 240 236 230 224 221 219 217 212 205 200 200 201 199 197 196 196 196 195 191 188 190 193 196 197 198 199 196 193 190 190 191 193 192 192 192 193 194 197 200 203 206 208 211 214 217 216 215 219 237 277 304 318 324 325 323 324 326 323
360 356 352 350 346 343 340 337 332 324 315 307 299 293 288 282 276 269 265 263 260 260 261 256 246 238 234 233 232 228 224 220 216 211 206 201 198 196 192 185 179 178 184 191 192 189 190 194 197 198 200 202 202 198 193 191 191 193 195 195 193 193 195 197 198 200 203 206 209 211 213 215 213 214 224 249 284 307 315 319 319 319 322 324 322
1 357 354 351 348 344 340 337 335 328 318 309 302 295 289 283 278 271 266 262 259 256 255 253 244 232 226 226 225 223 221 218 214 208 203 199 197 195 191 186 180 180 184 188 188 188 193 197 199 202 206 208 204 197 192 191 192 194 196 196 196 197 199 200 201 203 205 206 207 210 213 213 211 216 231 258 290 310 315 315 315 316 321 325 325
356 355 353 351 349 346 343 340 338 333 322 310 302 296 290 285 279 273 266 262 260 255 250 247 240 226 217 215 212 210 209 205 202 201 200 197 195 196 195 193 188 185 186 188 189 191 194 196 200 210 214 209 201 194 191 192 194 195 195 196 196 198 200 199 201 203 205 206 208 210 211 210 211 220 241 270 298 311 314 314 315 318 323 328 329
348 347 347 347 347 347 345 343 341 339 330 315 303 296 290 284 277 271 265 261 258 255 249 246 242 232 221 211 201 196 193 192 191 192 194 194 194 195 195 194 190 188 189 191 192 193 194 195 203 214 214 205 196 192 191 193 195 195 195 195 195 196 197 199 201 203 203 204 208 208 206 207 214 228 251 283 304 311 312 313 315 318 322 325 327
340 340 340 342 344 344 344 343 343 343 338 326 311 299 289 283 278 271 265 259 256 254 251 248 246 240 228 215 205 197 193 193 194 194 194 195 196 196 197 196 193 191 192 193 192 194 196 198 207 215 211 200 194 192 192 194 196 196 195 196 198 199 201 203 204 204 203 204 206 204 202 207 219 236 264 292 306 308 310 312 315 319 323 324 324
334 334 335 336 338 340 341 341 341 341 339 333 323 309 297 290 283 275 267 261 257 255 254 251 250 246 237 227 219 211 205 203 202 200 199 198 196 195 197 198 195 193 194 194 193 194 196 201 210 213 206 196 192 193 193 195 196 195 196 199 202 203 203 204 204 203 203 203 202 200 201 210 225 247 276 299 307 308 309 311 315 320 324 325 325
334 334 334 334 334 336 338 339 338 337 337 335 329 320 309 300 291 279 271 265 261 259 256 255 254 250 241 236 231 221 214 210 207 203 202 200 197 195 196 198 197 196 197 197 195 193 196 204 211 209 200 194 192 193 193 195 196 196 199 203 204 203 204 204 202 201 202 201 199 198 204 217 234 260 288 302 306 307 308 311 317 323 325 325 326
331 331 332 331 331 331 333 334 334 334 333 332 329 324 317 309 298 287 277 270 265 261 258 257 257 252 244 240 235 223 216 214 212 208 206 202 198 196 197 197 197 198 199 199 196 194 200 207 208 202 197 197 196 195 195 196 197 200 205 206 205 205 205 203 200 199 199 197 195 198 208 224 243 272 295 302 302 303 307 312 319 324 325 324 325
328 327 326 326 326 325 326 327 329 330 329 327 326 323 319 313 305 295 285 277 271 267 263 260 259 253 245 239 231 221 216 215 215 214 210 205 201 200 200 198 198 198 197 195 195 200 207 207 201 197 198 200 199 196 196 197 200 206 209 207 205 205 205 204 202 200 197 193 194 201 213 230 254 281 295 298 298 301 306 314 320 322 324 324 324
328 325 323 322 321 321 320 321 322 324 324 324 323 321 318 314 307 299 291 284 277 273 269 264 259 253 246 238 230 223 219 217 216 216 213 208 204 203 202 200 199 197 193 191 197 206 208 203 198 199 200 198 195 194 195 197 202 209 211 209 208 209 208 206 203 199 194 192 195 204 216 237 265 286 293 294 296 299 307 316 321 321 321 322 323
328 325 322 319 317 316 316 317 317 318 320 320 319 317 315 312 307 301 295 289 282 277 273 268 261 254 247 240 234 229 223 219 217 218 217 212 207 203 201 200 198 195 191 193 201 206 203 199 203 205 201 195 193 194 195 198 202 204 206 208 212 213 209 202 196 192 190 192 198 208 224 248 274 286 288 289 294 301 311 319 320 319 319 321 324
330 327 324 321 317 314 313 314 314 315 317 318 316 314 312 310 306 301 296 291 286 280 274 269 262 256 249 243 237 233 227 222 219 219 219 216 210 205 202 200 196 192 192 196 201 202 199 202 208 208 201 195 193 193 194 197 200 200 200 202 203 201 197 192 190 188 188 192 201 215 234 257 275 281 284 289 296 306 316 320 317 317 321 323 326
334 333 331 328 324 320 316 316 316 315 316 317 317 315 312 308 304 300 295 291 286 281 275 270 264 258 253 247 241 237 233 227 221 218 217 215 210 206 204 200 195 192 194 199 203 204 205 208 210 206 200 195 193 193 195 198 199 198 199 198 194 191 190 188 186 185 188 195 207 221 240 262 273 275 281 294 302 310 317 319 318 321 325 325 327
343 341 338 335 332 328 324 322 320 318 318 319 318 317 315 310 304 300 296 290 286 282 278 273 267 260 256 251 244 240 235 228 221 217 214 211 208 207 205 200 195 194 198 203 205 207 210 211 207 201 197 195 194 195 198 200 199 199 199 195 189 187 186 185 185 186 191 199 211 226 244 261 269 273 284 299 307 313 318 321 322 326 327 327 328
349 350 349 347 343 340 335 331 328 325 325 324 321 320 320 315 308 304 299 294 292 289 285 279 272 263 257 252 245 240 234 226 219 216 214 211 209 208 205 199 196 197 202 205 206 208 209 206 200 197 196 195 194 196 199 201 200 199 196 190 186 185 184 184 187 191 195 202 214 232 249 259 263 271 289 302 309 314 320 325 327 327 328 328 328
353 358 0 360 359 357 353 348 343 338 336 332 328 324 323 319 313 310 308 304 300 296 292 286 279 269 261 254 248 242 236 228 220 216 214 212 210 208 204 200 199 201 204 205 206 205 202 198 197 196 195 194 193 195 198 199 198 195 191 187 186 186 185 186 189 193 198 207 221 238 251 258 260 270 290 305 313 318 323 327 328 327 327 327 326